This demonstration page uses our WeatherBlox Daily Observations layout. Learn more.

Left ArrowRight Arrow

39.01783, -85.05884

Hourly Observations for December 25, 2017

Temp ( °F °C ) Dew Point ( °F °C ) Humidity (%) Winds ( mph kmh ) Pressure ( in mb ) Visibility ( mi km ) Precip ( " mm )
12:14 am 00:14 Windy with Snow Likely 21 -6.1 16 -8.9 81 81 W 22 35 30.24 1024 5 8 0.00 0.03
12:52 am 00:52 Windy with Snow Likely 21 -6.1 16 -8.9 81 81 W 22 35 30.19 1022 4 6 0.00 0.03
1:52 am 01:52 Cloudy with Light Snow 21 -6.1 15 -9.4 78 78 W 15 24 30.20 1023 10 16 0.00 0.03
2:23 am 02:23 Cloudy with Light Snow 21 -6.1 15 -9.4 78 78 W 17 28 30.30 1026 6 10 0.00 0.03
2:52 am 02:52 Cloudy with Light Snow 21 -6.1 14 -10 74 74 W 18 30 30.24 1024 10 16 0.00 0.03
3:52 am 03:52 Cloudy 21 -6.1 13 -10.6 71 71 W 12 19 30.26 1025 10 16 0.00 0.03
4:52 am 04:52 Cloudy 21 -6.1 14 -10 74 74 WSW 10 17 30.27 1025 10 16 0.00 0.00
5:29 am 05:29 Cloudy with Light Snow 21 -6.1 16 -8.9 81 81 WSW 14 22 30.36 1028 3 4 0.00 0.03
5:35 am 05:35 Cloudy with Light Snow 21 -6.1 16 -8.9 81 81 WSW 9 15 30.33 1027 5 8 0.00 0.03
5:52 am 05:52 Cloudy with Light Snow 21 -6.1 17 -8.3 85 85 WSW 12 19 30.29 1026 4 6 0.00 0.03
6:03 am 06:03 Cloudy with Light Snow 21 -6.1 17 -8.3 85 85 WSW 13 20 30.36 1028 6 10 0.00 0.03
6:52 am 06:52 Mostly Cloudy 21 -6.1 15 -9.4 78 78 W 12 19 30.31 1026 10 16 0.00 0.03
7:52 am 07:52 Mostly Cloudy 21 -6.1 12 -11.1 68 68 WSW 14 22 30.31 1026 10 16 0.00 0.03
8:52 am 08:52 Partly Cloudy 20 -6.7 12 -11.1 71 71 W 9 15 30.32 1027 10 16 0.00 0.00
9:52 am 09:52 Partly Cloudy 21 -6.1 13 -10.6 71 71 WSW 13 20 30.32 1027 10 16 0.00 0.00
10:52 am 10:52 Partly Cloudy 22 -5.6 13 -10.6 68 68 WSW 15 24 30.34 1027 10 16 0.00 0.00
11:52 am 11:52 Partly Cloudy 23 -5 14 -10 68 68 W 18 30 30.33 1027 10 16 0.00 0.00
12:52 pm 12:52 Partly Cloudy 24 -4.4 13 -10.6 62 62 W 21 33 30.33 1027 10 16 0.00 0.00
1:52 pm 13:52 Mostly Sunny 25 -3.9 9 -12.8 50 50 W 21 33 30.32 1027 10 16 0.00 0.00
2:52 pm 14:52 Partly Cloudy 26 -3.3 10 -12.2 51 51 W 16 26 30.33 1027 10 16 0.00 0.00
3:52 pm 15:52 Partly Cloudy 26 -3.3 6 -14.4 42 42 W 16 26 30.35 1028 10 16 0.00 0.00
4:52 pm 16:52 Partly Cloudy 25 -3.9 7 -13.9 46 46 W 13 20 30.38 1029 10 16 0.00 0.00
5:52 pm 17:52 Mostly Cloudy 24 -4.4 7 -13.9 48 48 WSW 10 17 30.40 1029 10 16 0.00 0.00
6:52 pm 18:52 Mostly Cloudy 23 -5 8 -13.3 53 53 WSW 7 11 30.42 1030 10 16 0.00 0.00
7:52 pm 19:52 Mostly Cloudy 23 -5 9 -12.8 55 55 WSW 7 11 30.42 1030 10 16 0.00 0.00
8:52 pm 20:52 Mostly Cloudy 22 -5.6 9 -12.8 57 57 WSW 7 11 30.43 1031 10 16 0.00 0.00
9:52 pm 21:52 Mostly Cloudy 22 -5.6 9 -12.8 57 57 WSW 7 11 30.43 1031 10 16 0.00 0.00
10:52 pm 22:52 Mostly Cloudy 22 -5.6 10 -12.2 60 60 WSW 7 11 30.45 1031 10 16 0.00 0.00
11:52 pm 23:52 Cloudy 21 -6.1 12 -11.1 68 68 W 7 11 30.45 1031 10 16 0.00 0.00

Powered by AerisWeather